Time,TemperatureF,DewpointF,PressureIn,WindDirection,WindDirectionDegrees,WindSpeedMPH,WindSpeedGustMPH,Humidity,HourlyPrecipIn,Conditions,Clouds,dailyrainin,SoftwareType,DateUTC
2013-06-13 00:00:00,65.8,61.2,29.77,NNE,20,4.0,6.0,85,0.00,,,0.03,Wunderground v.1.15,2013-06-13 05:00:00,
2013-06-13 00:09:00,65.7,61.1,29.77,North,351,4.0,4.0,85,0.00,,,0.00,Wunderground v.1.15,2013-06-13 05:09:00,
2013-06-13 00:14:00,65.8,60.8,29.78,NNE,31,3.0,5.0,84,0.00,,,0.00,Wunderground v.1.15,2013-06-13 05:14:00,
2013-06-13 00:20:00,65.9,60.9,29.78,WNW,282,3.0,3.0,84,0.00,,,0.00,Wunderground v.1.15,2013-06-13 05:20:00,
2013-06-13 00:25:00,65.9,60.9,29.78,WNW,303,3.0,4.0,84,0.00,,,0.00,Wunderground v.1.15,2013-06-13 05:25:00,
2013-06-13 00:30:00,65.9,60.9,29.78,NNW,346,4.0,4.0,84,0.00,,,0.00,Wunderground v.1.15,2013-06-13 05:30:00,
2013-06-13 00:35:00,65.9,60.9,29.79,NNW,344,4.0,4.0,84,0.00,,,0.00,Wunderground v.1.15,2013-06-13 05:35:00,
2013-06-13 00:40:00,65.9,60.9,29.79,North,5,3.0,7.0,84,0.00,,,0.00,Wunderground v.1.15,2013-06-13 05:40:00,
2013-06-13 00:45:00,66.0,61.0,29.80,NNW,332,3.0,7.0,84,0.00,,,0.00,Wunderground v.1.15,2013-06-13 05:45:00,
2013-06-13 00:54:00,66.1,61.1,29.80,North,355,2.0,4.0,84,0.00,,,0.00,Wunderground v.1.15,2013-06-13 05:54:00,
2013-06-13 00:59:00,66.2,61.2,29.81,NNE,15,1.0,5.0,84,0.00,,,0.00,Wunderground v.1.15,2013-06-13 05:59:00,
2013-06-13 01:04:00,66.3,61.3,29.81,NNW,333,0.0,8.0,84,0.00,,,0.00,Wunderground v.1.15,2013-06-13 06:04:00,
2013-06-13 01:10:00,66.4,61.1,29.82,NW,326,2.0,2.0,83,0.00,,,0.00,Wunderground v.1.15,2013-06-13 06:10:00,
2013-06-13 01:15:00,66.5,61.2,29.82,North,5,5.0,5.0,83,0.00,,,0.00,Wunderground v.1.15,2013-06-13 06:15:00,
2013-06-13 01:20:00,66.5,61.2,29.82,NNW,340,4.0,4.0,83,0.00,,,0.00,Wunderground v.1.15,2013-06-13 06:20:00,
2013-06-13 01:25:00,66.6,60.9,29.82,North,10,4.0,4.0,82,0.00,,,0.00,Wunderground v.1.15,2013-06-13 06:25:00,
2013-06-13 01:30:00,66.6,60.9,29.82,NNE,21,3.0,3.0,82,0.00,,,0.00,Wunderground v.1.15,2013-06-13 06:30:00,
2013-06-13 01:35:00,66.5,60.8,29.82,North,360,2.0,3.0,82,0.00,,,0.00,Wunderground v.1.15,2013-06-13 06:35:00,
2013-06-13 01:40:00,66.5,60.5,29.83,North,355,3.0,7.0,81,0.00,,,0.00,Wunderground v.1.15,2013-06-13 06:40:00,
2013-06-13 01:45:00,66.5,60.5,29.83,North,349,3.0,7.0,81,0.00,,,0.00,Wunderground v.1.15,2013-06-13 06:45:00,
2013-06-13 01:50:00,66.5,60.5,29.83,NNW,341,2.0,10.0,81,0.00,,,0.00,Wunderground v.1.15,2013-06-13 06:50:00,
2013-06-13 01:55:00,66.4,60.4,29.83,North,355,3.0,10.0,81,0.00,,,0.00,Wunderground v.1.15,2013-06-13 06:55:00,
2013-06-13 02:00:00,66.3,60.3,29.83,NNW,347,2.0,2.0,81,0.00,,,0.00,Wunderground v.1.15,2013-06-13 07:00:00,
2013-06-13 02:05:00,66.2,60.2,29.83,NNE,23,2.0,2.0,81,0.00,,,0.00,Wunderground v.1.15,2013-06-13 07:05:00,
2013-06-13 02:10:00,66.1,60.1,29.84,North,9,2.0,2.0,81,0.00,,,0.00,Wunderground v.1.15,2013-06-13 07:10:00,
2013-06-13 02:15:00,65.9,60.2,29.84,NW,323,1.0,2.0,82,0.00,,,0.00,Wunderground v.1.15,2013-06-13 07:15:00,
2013-06-13 02:20:00,65.7,60.1,29.84,NNE,15,0.0,0.0,82,0.00,,,0.00,Wunderground v.1.15,2013-06-13 07:20:00,
2013-06-13 02:25:00,65.5,59.9,29.84,North,11,0.0,0.0,82,0.00,,,0.00,Wunderground v.1.15,2013-06-13 07:25:00,
2013-06-13 02:30:00,65.4,60.1,29.84,North,355,0.0,0.0,83,0.00,,,0.00,Wunderground v.1.15,2013-06-13 07:30:00,
2013-06-13 02:35:00,65.2,59.9,29.84,North,5,0.0,0.0,83,0.00,,,0.00,Wunderground v.1.15,2013-06-13 07:35:00,
2013-06-13 02:40:00,65.0,59.7,29.84,WNW,299,0.0,0.0,83,0.00,,,0.00,Wunderground v.1.15,2013-06-13 07:40:00,
2013-06-13 02:49:00,64.7,59.4,29.85,NNE,17,0.0,0.0,83,0.00,,,0.00,Wunderground v.1.15,2013-06-13 07:49:00,
2013-06-13 02:55:00,64.5,59.2,29.85,North,11,0.0,0.0,83,0.00,,,0.00,Wunderground v.1.15,2013-06-13 07:55:00,
2013-06-13 03:00:00,64.4,59.1,29.85,North,5,1.0,1.0,83,0.00,,,0.00,Wunderground v.1.15,2013-06-13 08:00:00,
2013-06-13 03:05:00,64.3,58.7,29.85,NW,306,1.0,1.0,82,0.00,,,0.00,Wunderground v.1.15,2013-06-13 08:05:00,
2013-06-13 03:15:00,64.0,58.7,29.85,NW,311,0.0,0.0,83,0.00,,,0.00,Wunderground v.1.15,2013-06-13 08:15:00,
2013-06-13 03:20:00,63.8,58.5,29.86,NW,319,0.0,0.0,83,0.00,,,0.00,Wunderground v.1.15,2013-06-13 08:20:00,
2013-06-13 03:25:00,63.7,58.4,29.86,NNW,345,0.0,0.0,83,0.00,,,0.00,Wunderground v.1.15,2013-06-13 08:25:00,
2013-06-13 03:30:00,63.6,58.3,29.86,North,350,0.0,0.0,83,0.00,,,0.00,Wunderground v.1.15,2013-06-13 08:30:00,
2013-06-13 03:39:00,63.5,58.2,29.86,NNW,347,0.0,0.0,83,0.00,,,0.00,Wunderground v.1.15,2013-06-13 08:39:00,
2013-06-13 03:44:00,63.5,58.2,29.86,NNW,331,0.0,0.0,83,0.00,,,0.00,Wunderground v.1.15,2013-06-13 08:44:00,
2013-06-13 03:50:00,63.5,58.2,29.86,ENE,61,0.0,0.0,83,0.00,,,0.00,Wunderground v.1.15,2013-06-13 08:50:00,
2013-06-13 03:55:00,63.5,58.2,29.87,North,355,0.0,0.0,83,0.00,,,0.00,Wunderground v.1.15,2013-06-13 08:55:00,
2013-06-13 04:00:00,63.5,58.2,29.87,NNE,28,0.0,0.0,83,0.00,,,0.00,Wunderground v.1.15,2013-06-13 09:00:00,
2013-06-13 04:05:00,63.5,58.2,29.87,NW,325,0.0,0.0,83,0.00,,,0.00,Wunderground v.1.15,2013-06-13 09:05:00,
2013-06-13 04:10:00,63.4,58.1,29.88,NNW,340,0.0,0.0,83,0.00,,,0.00,Wunderground v.1.15,2013-06-13 09:10:00,
2013-06-13 04:15:00,63.3,58.4,29.88,North,355,0.0,0.0,84,0.00,,,0.00,Wunderground v.1.15,2013-06-13 09:15:00,
2013-06-13 04:25:00,63.2,58.3,29.88,NW,310,0.0,0.0,84,0.00,,,0.00,Wunderground v.1.15,2013-06-13 09:25:00,
2013-06-13 04:30:00,63.2,58.3,29.88,NNE,33,0.0,0.0,84,0.00,,,0.00,Wunderground v.1.15,2013-06-13 09:30:00,
2013-06-13 04:35:00,63.2,58.3,29.88,NNE,22,0.0,0.0,84,0.00,,,0.00,Wunderground v.1.15,2013-06-13 09:35:00,
2013-06-13 04:40:00,63.2,58.3,29.87,NNE,26,0.0,0.0,84,0.00,,,0.00,Wunderground v.1.15,2013-06-13 09:40:00,
2013-06-13 04:49:00,63.1,58.2,29.88,NNE,15,0.0,0.0,84,0.00,,,0.00,Wunderground v.1.15,2013-06-13 09:49:00,
2013-06-13 04:54:00,63.1,58.2,29.89,NNE,29,0.0,0.0,84,0.00,,,0.00,Wunderground v.1.15,2013-06-13 09:54:00,
2013-06-13 05:00:00,63.0,58.1,29.89,NNE,13,0.0,0.0,84,0.00,,,0.00,Wunderground v.1.15,2013-06-13 10:00:00,
2013-06-13 05:05:00,62.9,58.0,29.89,North,9,0.0,0.0,84,0.00,,,0.00,Wunderground v.1.15,2013-06-13 10:05:00,
2013-06-13 05:10:00,62.7,57.8,29.89,NNE,17,0.0,0.0,84,0.00,,,0.00,Wunderground v.1.15,2013-06-13 10:10:00,
2013-06-13 05:15:00,62.7,58.1,29.90,NNE,24,0.0,0.0,85,0.00,,,0.00,Wunderground v.1.15,2013-06-13 10:15:00,
2013-06-13 05:20:00,62.6,58.0,29.90,NNE,24,0.0,0.0,85,0.00,,,0.00,Wunderground v.1.15,2013-06-13 10:20:00,
2013-06-13 05:25:00,62.6,58.0,29.90,NNE,21,0.0,0.0,85,0.00,,,0.00,Wunderground v.1.15,2013-06-13 10:25:00,
2013-06-13 05:35:00,62.5,57.9,29.91,NNE,17,0.0,0.0,85,0.00,,,0.00,Wunderground v.1.15,2013-06-13 10:35:00,
2013-06-13 05:40:00,62.4,57.8,29.91,NW,325,0.0,0.0,85,0.00,,,0.00,Wunderground v.1.15,2013-06-13 10:40:00,
2013-06-13 05:45:00,62.3,57.7,29.91,North,9,0.0,0.0,85,0.00,,,0.00,Wunderground v.1.15,2013-06-13 10:45:00,
2013-06-13 05:50:00,62.3,57.7,29.91,NNW,344,0.0,0.0,85,0.00,,,0.00,Wunderground v.1.15,2013-06-13 10:50:00,
2013-06-13 05:55:00,62.3,57.7,29.91,WNW,301,0.0,0.0,85,0.00,,,0.00,Wunderground v.1.15,2013-06-13 10:55:00,
2013-06-13 06:00:00,62.3,57.7,29.91,North,360,0.0,0.0,85,0.00,,,0.00,Wunderground v.1.15,2013-06-13 11:00:00,
2013-06-13 06:05:00,62.3,57.7,29.92,NNE,18,0.0,0.0,85,0.00,,,0.00,Wunderground v.1.15,2013-06-13 11:05:00,
2013-06-13 06:10:00,62.2,57.6,29.92,North,355,0.0,0.0,85,0.00,,,0.00,Wunderground v.1.15,2013-06-13 11:10:00,
2013-06-13 06:15:00,62.2,58.0,29.92,NNE,18,0.0,0.0,86,0.00,,,0.00,Wunderground v.1.15,2013-06-13 11:15:00,
2013-06-13 06:20:00,62.2,58.0,29.93,NNE,16,0.0,0.0,86,0.00,,,0.00,Wunderground v.1.15,2013-06-13 11:20:00,
2013-06-13 06:29:00,62.4,57.8,29.93,NNE,26,0.0,0.0,85,0.00,,,0.00,Wunderground v.1.15,2013-06-13 11:29:00,
2013-06-13 06:34:00,62.5,57.9,29.93,NNE,24,0.0,0.0,85,0.00,,,0.00,Wunderground v.1.15,2013-06-13 11:34:00,
2013-06-13 06:44:00,62.7,58.1,29.93,NW,322,0.0,0.0,85,0.00,,,0.00,Wunderground v.1.15,2013-06-13 11:44:00,
2013-06-13 06:50:00,62.7,58.1,29.93,North,360,0.0,0.0,85,0.00,,,0.00,Wunderground v.1.15,2013-06-13 11:50:00,
2013-06-13 06:55:00,62.9,58.3,29.93,North,360,0.0,0.0,85,0.00,,,0.00,Wunderground v.1.15,2013-06-13 11:55:00,
2013-06-13 07:00:00,63.0,58.4,29.94,NW,306,0.0,0.0,85,0.00,,,0.00,Wunderground v.1.15,2013-06-13 12:00:00,
2013-06-13 07:05:00,63.1,58.5,29.94,North,11,0.0,0.0,85,0.00,,,0.00,Wunderground v.1.15,2013-06-13 12:05:00,
2013-06-13 07:10:00,63.3,58.7,29.94,North,11,0.0,0.0,85,0.00,,,0.00,Wunderground v.1.15,2013-06-13 12:10:00,
2013-06-13 07:15:00,63.6,58.7,29.94,North,360,0.0,0.0,84,0.00,,,0.00,Wunderground v.1.15,2013-06-13 12:15:00,
2013-06-13 07:20:00,64.0,58.7,29.94,North,5,0.0,0.0,83,0.00,,,0.00,Wunderground v.1.15,2013-06-13 12:20:00,
2013-06-13 07:25:00,64.5,58.9,29.94,NNE,22,0.0,0.0,82,0.00,,,0.00,Wunderground v.1.15,2013-06-13 12:25:00,
2013-06-13 07:34:00,65.3,59.0,29.95,North,11,0.0,0.0,80,0.00,,,0.00,Wunderground v.1.15,2013-06-13 12:34:00,
2013-06-13 07:39:00,65.6,59.3,29.95,NNW,339,0.0,0.0,80,0.00,,,0.00,Wunderground v.1.15,2013-06-13 12:39:00,
2013-06-13 07:45:00,66.1,59.4,29.95,NW,324,0.0,0.0,79,0.00,,,0.00,Wunderground v.1.15,2013-06-13 12:45:00,
2013-06-13 07:55:00,66.6,58.8,29.96,North,360,0.0,0.0,76,0.00,,,0.00,Wunderground v.1.15,2013-06-13 12:55:00,
2013-06-13 08:00:00,66.9,59.1,29.96,NNW,344,0.0,0.0,76,0.00,,,0.00,Wunderground v.1.15,2013-06-13 13:00:00,
2013-06-13 08:05:00,67.2,59.4,29.97,North,355,0.0,0.0,76,0.00,,,0.00,Wunderground v.1.15,2013-06-13 13:05:00,
2013-06-13 08:10:00,67.6,59.8,29.97,NNE,25,0.0,0.0,76,0.00,,,0.00,Wunderground v.1.15,2013-06-13 13:10:00,
2013-06-13 08:15:00,68.0,59.8,29.97,North,9,0.0,0.0,75,0.00,,,0.00,Wunderground v.1.15,2013-06-13 13:15:00,
2013-06-13 08:20:00,68.2,59.6,29.97,NNW,329,0.0,0.0,74,0.00,,,0.00,Wunderground v.1.15,2013-06-13 13:20:00,
2013-06-13 08:25:00,68.2,59.6,29.97,NNE,23,0.0,0.0,74,0.00,,,0.00,Wunderground v.1.15,2013-06-13 13:25:00,
2013-06-13 08:35:00,68.9,59.9,29.97,NNE,18,0.0,0.0,73,0.00,,,0.00,Wunderground v.1.15,2013-06-13 13:35:00,
2013-06-13 08:40:00,69.3,60.3,29.97,NW,317,0.0,0.0,73,0.00,,,0.00,Wunderground v.1.15,2013-06-13 13:40:00,
2013-06-13 08:49:00,69.8,60.4,29.97,WNW,298,0.0,0.0,72,0.00,,,0.00,Wunderground v.1.15,2013-06-13 13:49:00,
2013-06-13 08:54:00,69.9,60.1,29.97,North,9,0.0,0.0,71,0.00,,,0.00,Wunderground v.1.15,2013-06-13 13:54:00,
2013-06-13 08:59:00,69.8,60.4,29.97,North,10,0.0,0.0,72,0.00,,,0.00,Wunderground v.1.15,2013-06-13 13:59:00,
2013-06-13 09:05:00,70.0,60.6,29.97,NNW,338,0.0,0.0,72,0.00,,,0.00,Wunderground v.1.15,2013-06-13 14:05:00,
2013-06-13 09:10:00,70.2,60.4,29.97,North,360,0.0,0.0,71,0.00,,,0.00,Wunderground v.1.15,2013-06-13 14:10:00,
2013-06-13 09:15:00,70.3,60.4,29.97,NW,314,0.0,0.0,71,0.00,,,0.00,Wunderground v.1.15,2013-06-13 14:15:00,
2013-06-13 09:20:00,70.6,60.7,29.98,NW,318,0.0,0.0,71,0.00,,,0.00,Wunderground v.1.15,2013-06-13 14:20:00,
2013-06-13 09:25:00,71.0,61.1,29.98,NW,310,0.0,0.0,71,0.00,,,0.00,Wunderground v.1.15,2013-06-13 14:25:00,
2013-06-13 09:30:00,71.3,60.6,29.98,North,355,0.0,0.0,69,0.00,,,0.00,Wunderground v.1.15,2013-06-13 14:30:00,
2013-06-13 09:35:00,71.3,61.4,29.98,North,350,0.0,0.0,71,0.00,,,0.00,Wunderground v.1.15,2013-06-13 14:35:00,
2013-06-13 09:40:00,71.8,61.5,29.98,North,350,0.0,0.0,70,0.00,,,0.00,Wunderground v.1.15,2013-06-13 14:40:00,
2013-06-13 09:45:00,72.1,61.4,29.98,NNW,348,0.0,0.0,69,0.00,,,0.00,Wunderground v.1.15,2013-06-13 14:45:00,
2013-06-13 09:50:00,72.1,61.0,29.98,North,10,0.0,0.0,68,0.00,,,0.00,Wunderground v.1.15,2013-06-13 14:50:00,
2013-06-13 09:55:00,72.3,61.6,29.98,WNW,290,0.0,0.0,69,0.00,,,0.00,Wunderground v.1.15,2013-06-13 14:55:00,
2013-06-13 10:05:00,72.9,61.7,29.98,NNW,342,0.0,0.0,68,0.00,,,0.00,Wunderground v.1.15,2013-06-13 15:05:00,
2013-06-13 10:15:00,73.0,61.8,29.98,NNW,329,0.0,0.0,68,0.00,,,0.00,Wunderground v.1.15,2013-06-13 15:15:00,
2013-06-13 10:20:00,73.2,62.0,29.98,NW,322,0.0,0.0,68,0.00,,,0.00,Wunderground v.1.15,2013-06-13 15:20:00,
2013-06-13 10:25:00,73.5,61.9,29.98,NNE,15,0.0,0.0,67,0.00,,,0.00,Wunderground v.1.15,2013-06-13 15:25:00,
2013-06-13 10:30:00,73.6,61.5,29.97,NNW,344,0.0,0.0,66,0.00,,,0.00,Wunderground v.1.15,2013-06-13 15:30:00,
2013-06-13 10:39:00,74.1,62.0,29.98,North,360,0.0,0.0,66,0.00,,,0.00,Wunderground v.1.15,2013-06-13 15:39:00,
2013-06-13 10:44:00,74.4,62.7,29.98,North,9,0.0,0.0,67,0.00,,,0.00,Wunderground v.1.15,2013-06-13 15:44:00,
2013-06-13 10:49:00,75.1,63.4,29.98,NNE,19,0.0,0.0,67,0.00,,,0.00,Wunderground v.1.15,2013-06-13 15:49:00,
2013-06-13 10:55:00,75.6,62.6,29.98,NNW,338,0.0,0.0,64,0.00,,,0.00,Wunderground v.1.15,2013-06-13 15:55:00,
2013-06-13 11:00:00,75.7,63.1,29.98,NNW,344,0.0,0.0,65,0.00,,,0.00,Wunderground v.1.15,2013-06-13 16:00:00,
2013-06-13 11:05:00,76.2,62.7,29.98,WNW,303,0.0,0.0,63,0.00,,,0.00,Wunderground v.1.15,2013-06-13 16:05:00,
2013-06-13 11:10:00,76.5,63.0,29.97,NNW,327,0.0,0.0,63,0.00,,,0.00,Wunderground v.1.15,2013-06-13 16:10:00,
2013-06-13 11:15:00,76.7,63.2,29.98,NW,325,0.0,0.0,63,0.00,,,0.00,Wunderground v.1.15,2013-06-13 16:15:00,
2013-06-13 11:25:00,76.8,62.8,29.99,NNE,21,0.0,0.0,62,0.00,,,0.00,Wunderground v.1.15,2013-06-13 16:25:00,
2013-06-13 11:34:00,76.8,62.8,29.98,NE,44,0.0,0.0,62,0.00,,,0.00,Wunderground v.1.15,2013-06-13 16:34:00,
2013-06-13 11:39:00,77.0,63.0,29.99,North,350,0.0,0.0,62,0.00,,,0.00,Wunderground v.1.15,2013-06-13 16:39:00,
2013-06-13 11:44:00,77.5,63.5,29.99,NE,40,0.0,0.0,62,0.00,,,0.00,Wunderground v.1.15,2013-06-13 16:44:00,
2013-06-13 11:50:00,77.7,62.7,29.99,NNW,332,0.0,0.0,60,0.00,,,0.00,Wunderground v.1.15,2013-06-13 16:50:00,
2013-06-13 11:55:00,78.0,62.5,29.99,NW,313,0.0,0.0,59,0.00,,,0.00,Wunderground v.1.15,2013-06-13 16:55:00,
2013-06-13 12:00:00,77.8,62.8,29.99,NNW,347,0.0,0.0,60,0.00,,,0.00,Wunderground v.1.15,2013-06-13 17:00:00,
2013-06-13 12:05:00,78.0,63.0,29.99,North,355,0.0,0.0,60,0.00,,,0.00,Wunderground v.1.15,2013-06-13 17:05:00,
2013-06-13 12:10:00,78.2,63.6,29.99,ENE,63,0.0,0.0,61,0.00,,,0.00,Wunderground v.1.15,2013-06-13 17:10:00,
2013-06-13 12:15:00,78.5,64.4,29.98,North,360,0.0,0.0,62,0.00,,,0.00,Wunderground v.1.15,2013-06-13 17:15:00,
2013-06-13 12:20:00,79.0,63.9,29.98,NW,319,0.0,0.0,60,0.00,,,0.00,Wunderground v.1.15,2013-06-13 17:20:00,
2013-06-13 12:25:00,79.6,63.0,29.98,NNW,336,0.0,0.0,57,0.00,,,0.00,Wunderground v.1.15,2013-06-13 17:25:00,
2013-06-13 12:35:00,79.3,63.2,29.98,NNW,336,0.0,0.0,58,0.00,,,0.00,Wunderground v.1.15,2013-06-13 17:35:00,
2013-06-13 12:40:00,79.0,63.9,29.98,NE,39,0.0,0.0,60,0.00,,,0.00,Wunderground v.1.15,2013-06-13 17:40:00,
2013-06-13 12:45:00,79.2,63.1,29.99,NW,318,0.0,0.0,58,0.00,,,0.00,Wunderground v.1.15,2013-06-13 17:45:00,
2013-06-13 12:50:00,79.2,64.1,29.99,North,11,0.0,0.0,60,0.00,,,0.00,Wunderground v.1.15,2013-06-13 17:50:00,
2013-06-13 12:55:00,79.0,63.0,29.99,NW,315,0.0,0.0,58,0.00,,,0.00,Wunderground v.1.15,2013-06-13 17:55:00,
2013-06-13 13:00:00,78.6,64.0,29.99,NNW,327,0.0,0.0,61,0.00,,,0.00,Wunderground v.1.15,2013-06-13 18:00:00,
2013-06-13 13:05:00,78.8,63.3,29.99,WNW,301,0.0,0.0,59,0.00,,,0.00,Wunderground v.1.15,2013-06-13 18:05:00,
2013-06-13 13:15:00,80.1,63.0,29.98,North,360,0.0,0.0,56,0.00,,,0.00,Wunderground v.1.15,2013-06-13 18:15:00,
2013-06-13 13:24:00,80.2,61.5,29.98,NNE,15,0.0,0.0,53,0.00,,,0.00,Wunderground v.1.15,2013-06-13 18:24:00,
2013-06-13 13:29:00,80.0,61.9,29.98,NW,323,0.0,0.0,54,0.00,,,0.00,Wunderground v.1.15,2013-06-13 18:29:00,
2013-06-13 13:35:00,80.5,63.9,29.98,NNW,331,0.0,0.0,57,0.00,,,0.00,Wunderground v.1.15,2013-06-13 18:35:00,
2013-06-13 13:45:00,82.1,63.8,29.97,NNW,340,0.0,0.0,54,0.00,,,0.00,Wunderground v.1.15,2013-06-13 18:45:00,
2013-06-13 13:50:00,82.5,62.5,29.97,North,5,0.0,0.0,51,0.00,,,0.00,Wunderground v.1.15,2013-06-13 18:50:00,
2013-06-13 13:55:00,82.5,61.4,29.97,NW,318,0.0,0.0,49,0.00,,,0.00,Wunderground v.1.15,2013-06-13 18:55:00,
2013-06-13 14:00:00,82.8,62.8,29.97,West,268,0.0,0.0,51,0.00,,,0.00,Wunderground v.1.15,2013-06-13 19:00:00,
2013-06-13 14:05:00,83.1,62.0,29.97,SE,142,0.0,0.0,49,0.00,,,0.00,Wunderground v.1.15,2013-06-13 19:05:00,
2013-06-13 14:10:00,83.0,60.7,29.97,NNE,14,0.0,0.0,47,0.00,,,0.00,Wunderground v.1.15,2013-06-13 19:10:00,
2013-06-13 14:19:00,83.0,60.7,29.96,NNE,19,0.0,0.0,47,0.00,,,0.00,Wunderground v.1.15,2013-06-13 19:19:00,
2013-06-13 14:24:00,83.0,61.9,29.96,North,360,0.0,0.0,49,0.00,,,0.00,Wunderground v.1.15,2013-06-13 19:24:00,
2013-06-13 14:29:00,82.8,61.7,29.96,North,5,0.0,0.0,49,0.00,,,0.00,Wunderground v.1.15,2013-06-13 19:29:00,
2013-06-13 14:35:00,82.6,61.5,29.95,North,5,0.0,0.0,49,0.00,,,0.00,Wunderground v.1.15,2013-06-13 19:35:00,
2013-06-13 14:40:00,82.6,60.3,29.96,North,11,0.0,0.0,47,0.00,,,0.00,Wunderground v.1.15,2013-06-13 19:40:00,
2013-06-13 14:45:00,82.8,59.9,29.95,North,10,0.0,0.0,46,0.00,,,0.00,Wunderground v.1.15,2013-06-13 19:45:00,
2013-06-13 14:55:00,82.1,59.3,29.95,WSW,252,0.0,0.0,46,0.00,,,0.00,Wunderground v.1.15,2013-06-13 19:55:00,
2013-06-13 15:00:00,82.1,59.3,29.95,NW,317,0.0,0.0,46,0.00,,,0.00,Wunderground v.1.15,2013-06-13 20:00:00,
2013-06-13 15:09:00,82.8,60.5,29.95,North,350,0.0,0.0,47,0.00,,,0.00,Wunderground v.1.15,2013-06-13 20:09:00,
2013-06-13 15:14:00,82.3,59.4,29.95,North,360,0.0,0.0,46,0.00,,,0.00,Wunderground v.1.15,2013-06-13 20:14:00,
2013-06-13 15:19:00,82.1,59.3,29.95,North,360,0.0,0.0,46,0.00,,,0.00,Wunderground v.1.15,2013-06-13 20:19:00,
2013-06-13 15:25:00,82.3,59.4,29.95,NNE,13,0.0,0.0,46,0.00,,,0.00,Wunderground v.1.15,2013-06-13 20:25:00,
2013-06-13 15:30:00,82.4,61.3,29.96,North,355,0.0,0.0,49,0.00,,,0.00,Wunderground v.1.15,2013-06-13 20:30:00,
2013-06-13 15:35:00,82.7,57.9,29.95,WNW,294,0.0,0.0,43,0.00,,,0.00,Wunderground v.1.15,2013-06-13 20:35:00,
2013-06-13 15:40:00,83.0,59.5,29.95,WNW,293,0.0,0.0,45,0.00,,,0.00,Wunderground v.1.15,2013-06-13 20:40:00,
2013-06-13 15:45:00,82.7,58.6,29.95,WNW,298,0.0,0.0,44,0.00,,,0.00,Wunderground v.1.15,2013-06-13 20:45:00,
2013-06-13 15:54:00,83.5,58.6,29.95,North,355,0.0,0.0,43,0.00,,,0.00,Wunderground v.1.15,2013-06-13 20:54:00,
2013-06-13 15:59:00,83.6,60.0,29.95,NE,44,0.0,0.0,45,0.00,,,0.00,Wunderground v.1.15,2013-06-13 20:59:00,
2013-06-13 16:09:00,84.5,58.9,29.96,NE,40,0.0,0.0,42,0.00,,,0.00,Wunderground v.1.15,2013-06-13 21:09:00,
2013-06-13 16:14:00,84.6,60.3,29.96,NNE,15,0.0,0.0,44,0.00,,,0.00,Wunderground v.1.15,2013-06-13 21:14:00,
2013-06-13 16:19:00,84.7,59.7,29.96,NNE,15,0.0,0.0,43,0.00,,,0.00,Wunderground v.1.15,2013-06-13 21:19:00,
2013-06-13 16:25:00,83.8,59.6,29.96,East,98,0.0,0.0,44,0.00,,,0.00,Wunderground v.1.15,2013-06-13 21:25:00,
2013-06-13 16:30:00,83.3,58.5,29.96,ENE,74,0.0,0.0,43,0.00,,,0.00,Wunderground v.1.15,2013-06-13 21:30:00,
2013-06-13 16:35:00,83.1,57.0,29.96,East,91,0.0,0.0,41,0.00,,,0.00,Wunderground v.1.15,2013-06-13 21:35:00,
2013-06-13 16:40:00,82.7,58.6,29.96,South,187,0.0,0.0,44,0.00,,,0.00,Wunderground v.1.15,2013-06-13 21:40:00,
2013-06-13 16:45:00,83.3,58.5,29.96,WNW,287,0.0,0.0,43,0.00,,,0.00,Wunderground v.1.15,2013-06-13 21:45:00,
2013-06-13 16:50:00,83.6,58.1,29.97,WNW,302,0.0,0.0,42,0.00,,,0.00,Wunderground v.1.15,2013-06-13 21:50:00,
2013-06-13 16:59:00,82.4,58.3,29.97,SSW,209,0.0,0.0,44,0.00,,,0.00,Wunderground v.1.15,2013-06-13 21:59:00,
2013-06-13 17:05:00,82.2,56.8,29.98,WNW,298,0.0,0.0,42,0.00,,,0.00,Wunderground v.1.15,2013-06-13 22:05:00,
2013-06-13 17:10:00,82.6,57.8,29.98,North,355,0.0,0.0,43,0.00,,,0.00,Wunderground v.1.15,2013-06-13 22:10:00,
2013-06-13 17:20:00,83.8,57.6,29.97,ENE,63,0.0,0.0,41,0.00,,,0.00,Wunderground v.1.15,2013-06-13 22:20:00,
2013-06-13 17:25:00,84.2,58.6,29.97,NW,307,0.0,0.0,42,0.00,,,0.00,Wunderground v.1.15,2013-06-13 22:25:00,
2013-06-13 17:30:00,84.5,58.2,29.97,NW,307,0.0,0.0,41,0.00,,,0.00,Wunderground v.1.15,2013-06-13 22:30:00,
2013-06-13 17:35:00,84.8,57.1,29.97,SW,227,0.0,0.0,39,0.00,,,0.00,Wunderground v.1.15,2013-06-13 22:35:00,
2013-06-13 17:40:00,84.3,56.6,29.98,SW,232,0.0,0.0,39,0.00,,,0.00,Wunderground v.1.15,2013-06-13 22:40:00,
2013-06-13 17:49:00,83.4,58.6,29.97,SSW,213,0.0,0.0,43,0.00,,,0.00,Wunderground v.1.15,2013-06-13 22:49:00,
2013-06-13 17:54:00,83.6,56.7,29.97,NNW,339,0.0,0.0,40,0.00,,,0.00,Wunderground v.1.15,2013-06-13 22:54:00,
2013-06-13 17:59:00,83.5,56.6,29.97,North,10,0.0,0.0,40,0.00,,,0.00,Wunderground v.1.15,2013-06-13 22:59:00,
2013-06-13 18:04:00,83.3,56.5,29.98,NNE,17,0.0,0.0,40,0.00,,,0.00,Wunderground v.1.15,2013-06-13 23:04:00,
2013-06-13 18:10:00,83.2,56.4,29.98,NNE,13,0.0,0.0,40,0.00,,,0.00,Wunderground v.1.15,2013-06-13 23:10:00,
2013-06-13 18:15:00,83.3,57.1,29.97,North,10,0.0,0.0,41,0.00,,,0.00,Wunderground v.1.15,2013-06-13 23:15:00,
2013-06-13 18:20:00,83.0,57.5,29.97,NNW,330,0.0,0.0,42,0.00,,,0.00,Wunderground v.1.15,2013-06-13 23:20:00,
2013-06-13 18:30:00,82.7,56.6,29.97,North,360,0.0,0.0,41,0.00,,,0.00,Wunderground v.1.15,2013-06-13 23:30:00,
2013-06-13 18:35:00,82.7,57.3,29.97,North,360,0.0,0.0,42,0.00,,,0.00,Wunderground v.1.15,2013-06-13 23:35:00,
2013-06-13 18:40:00,82.7,59.2,29.97,North,360,0.0,0.0,45,0.00,,,0.00,Wunderground v.1.15,2013-06-13 23:40:00,
2013-06-13 18:45:00,82.3,56.2,29.97,WNW,300,0.0,0.0,41,0.00,,,0.00,Wunderground v.1.15,2013-06-13 23:45:00,
2013-06-13 18:54:00,81.4,56.8,29.97,NW,316,0.0,0.0,43,0.00,,,0.00,Wunderground v.1.15,2013-06-13 23:54:00,
2013-06-13 18:59:00,81.0,57.0,29.97,NW,316,0.0,0.0,44,0.00,,,0.00,Wunderground v.1.15,2013-06-13 23:59:00,
2013-06-13 19:04:00,80.7,56.1,29.96,NW,315,0.0,0.0,43,0.00,,,0.00,Wunderground v.1.15,2013-06-14 00:04:00,
2013-06-13 19:09:00,80.5,57.2,29.97,NW,316,0.0,0.0,45,0.00,,,0.00,Wunderground v.1.15,2013-06-14 00:09:00,
2013-06-13 19:15:00,80.4,58.3,29.96,NW,316,0.0,0.0,47,0.00,,,0.00,Wunderground v.1.15,2013-06-14 00:15:00,
2013-06-13 19:20:00,80.2,57.5,29.96,NW,315,0.0,0.0,46,0.00,,,0.00,Wunderground v.1.15,2013-06-14 00:20:00,
2013-06-13 19:30:00,79.8,57.2,29.96,NW,315,0.0,0.0,46,0.00,,,0.00,Wunderground v.1.15,2013-06-14 00:30:00,
2013-06-13 19:40:00,79.5,57.5,29.95,NW,316,0.0,0.0,47,0.00,,,0.00,Wunderground v.1.15,2013-06-14 00:40:00,
2013-06-13 19:45:00,79.3,57.3,29.95,NW,316,0.0,0.0,47,0.00,,,0.00,Wunderground v.1.15,2013-06-14 00:45:00,
2013-06-13 19:50:00,79.1,57.7,29.95,NW,315,0.0,0.0,48,0.00,,,0.00,Wunderground v.1.15,2013-06-14 00:50:00,
2013-06-13 19:59:00,78.6,57.8,29.94,NW,316,0.0,0.0,49,0.00,,,0.00,Wunderground v.1.15,2013-06-14 00:59:00,
2013-06-13 20:04:00,78.2,58.0,29.94,NW,316,0.0,0.0,50,0.00,,,0.00,Wunderground v.1.15,2013-06-14 01:04:00,
2013-06-13 20:09:00,78.0,57.9,29.94,NW,316,0.0,0.0,50,0.00,,,0.00,Wunderground v.1.15,2013-06-14 01:09:00,
2013-06-13 20:14:00,77.6,58.0,29.94,NW,316,0.0,0.0,51,0.00,,,0.00,Wunderground v.1.15,2013-06-14 01:14:00,
2013-06-13 20:20:00,77.3,57.8,29.94,NW,316,0.0,0.0,51,0.00,,,0.00,Wunderground v.1.15,2013-06-14 01:20:00,
2013-06-13 20:25:00,76.9,57.9,29.94,NW,316,0.0,0.0,52,0.00,,,0.00,Wunderground v.1.15,2013-06-14 01:25:00,
2013-06-13 20:30:00,76.5,58.1,29.93,NW,316,0.0,0.0,53,0.00,,,0.00,Wunderground v.1.15,2013-06-14 01:30:00,
2013-06-13 20:35:00,76.1,58.8,29.94,NW,315,0.0,0.0,55,0.00,,,0.00,Wunderground v.1.15,2013-06-14 01:35:00,
2013-06-13 20:40:00,75.7,59.4,29.94,NW,316,0.0,0.0,57,0.00,,,0.00,Wunderground v.1.15,2013-06-14 01:40:00,
2013-06-13 20:50:00,74.9,59.1,29.94,NW,315,0.0,0.0,58,0.00,,,0.00,Wunderground v.1.15,2013-06-14 01:50:00,
2013-06-13 20:55:00,74.7,58.0,29.93,NW,316,0.0,0.0,56,0.00,,,0.00,Wunderground v.1.15,2013-06-14 01:55:00,
2013-06-13 21:04:00,74.3,58.1,29.93,NW,316,0.0,0.0,57,0.00,,,0.00,Wunderground v.1.15,2013-06-14 02:04:00,
2013-06-13 21:10:00,74.1,58.4,29.93,NW,315,0.0,0.0,58,0.00,,,0.00,Wunderground v.1.15,2013-06-14 02:10:00,
2013-06-13 21:14:00,74.2,58.9,29.93,NW,316,0.0,0.0,59,0.00,,,0.00,Wunderground v.1.15,2013-06-14 02:14:00,
2013-06-13 21:20:00,74.3,59.0,29.93,NW,315,0.0,0.0,59,0.00,,,0.00,Wunderground v.1.15,2013-06-14 02:20:00,
2013-06-13 21:25:00,74.2,58.9,29.93,NW,316,0.0,0.0,59,0.00,,,0.00,Wunderground v.1.15,2013-06-14 02:25:00,
2013-06-13 21:30:00,74.1,58.9,29.93,NW,315,0.0,0.0,59,0.00,,,0.00,Wunderground v.1.15,2013-06-14 02:30:00,
2013-06-13 21:35:00,74.1,58.4,29.93,NW,316,0.0,0.0,58,0.00,,,0.00,Wunderground v.1.15,2013-06-14 02:35:00,
2013-06-13 21:40:00,74.0,58.8,29.93,NW,315,0.0,0.0,59,0.00,,,0.00,Wunderground v.1.15,2013-06-14 02:40:00,
2013-06-13 21:45:00,73.8,58.6,29.93,East,82,0.0,0.0,59,0.00,,,0.00,Wunderground v.1.15,2013-06-14 02:45:00,
2013-06-13 21:54:00,73.6,58.4,29.93,East,79,0.0,0.0,59,0.00,,,0.00,Wunderground v.1.15,2013-06-14 02:54:00,
2013-06-13 22:00:00,73.5,58.3,29.93,ENE,74,0.0,0.0,59,0.00,,,0.00,Wunderground v.1.15,2013-06-14 03:00:00,
2013-06-13 22:09:00,73.2,58.0,29.94,ENE,64,0.0,0.0,59,0.00,,,0.00,Wunderground v.1.15,2013-06-14 03:09:00,
2013-06-13 22:14:00,73.0,58.3,29.94,East,79,0.0,0.0,60,0.00,,,0.00,Wunderground v.1.15,2013-06-14 03:14:00,
2013-06-13 22:20:00,72.8,58.1,29.93,East,90,0.0,0.0,60,0.00,,,0.00,Wunderground v.1.15,2013-06-14 03:20:00,
2013-06-13 22:25:00,72.6,57.9,29.93,East,88,0.0,0.0,60,0.00,,,0.00,Wunderground v.1.15,2013-06-14 03:25:00,
2013-06-13 22:30:00,72.5,58.3,29.93,East,98,0.0,0.0,61,0.00,,,0.00,Wunderground v.1.15,2013-06-14 03:30:00,
2013-06-13 22:35:00,72.3,58.1,29.94,East,84,0.0,0.0,61,0.00,,,0.00,Wunderground v.1.15,2013-06-14 03:35:00,
2013-06-13 22:40:00,72.1,58.4,29.94,East,80,0.0,0.0,62,0.00,,,0.00,Wunderground v.1.15,2013-06-14 03:40:00,
2013-06-13 22:45:00,71.9,57.7,29.94,East,81,0.0,0.0,61,0.00,,,0.00,Wunderground v.1.15,2013-06-14 03:45:00,
2013-06-13 22:54:00,71.7,58.0,29.94,East,91,0.0,0.0,62,0.00,,,0.00,Wunderground v.1.15,2013-06-14 03:54:00,
2013-06-13 22:59:00,71.5,57.8,29.94,East,84,0.0,0.0,62,0.00,,,0.00,Wunderground v.1.15,2013-06-14 03:59:00,
2013-06-13 23:04:00,71.4,57.7,29.94,East,87,0.0,0.0,62,0.00,,,0.00,Wunderground v.1.15,2013-06-14 04:04:00,
2013-06-13 23:09:00,71.2,58.0,29.94,East,86,0.0,0.0,63,0.00,,,0.00,Wunderground v.1.15,2013-06-14 04:09:00,
2013-06-13 23:14:00,71.0,57.8,29.94,East,91,0.0,0.0,63,0.00,,,0.00,Wunderground v.1.15,2013-06-14 04:14:00,
2013-06-13 23:19:00,70.8,57.6,29.94,East,91,0.0,0.0,63,0.00,,,0.00,Wunderground v.1.15,2013-06-14 04:19:00,
2013-06-13 23:25:00,70.7,57.9,29.95,East,81,0.0,0.0,64,0.00,,,0.00,Wunderground v.1.15,2013-06-14 04:25:00,
2013-06-13 23:30:00,70.5,57.7,29.95,East,83,0.0,0.0,64,0.00,,,0.00,Wunderground v.1.15,2013-06-14 04:30:00,
2013-06-13 23:35:00,70.5,57.7,29.95,East,85,0.0,0.0,64,0.00,,,0.00,Wunderground v.1.15,2013-06-14 04:35:00,
2013-06-13 23:40:00,70.4,57.6,29.95,East,86,0.0,0.0,64,0.00,,,0.00,Wunderground v.1.15,2013-06-14 04:40:00,
2013-06-13 23:45:00,70.3,58.0,29.96,East,86,0.0,0.0,65,0.00,,,0.00,Wunderground v.1.15,2013-06-14 04:45:00,
2013-06-13 23:50:00,70.2,57.9,29.97,East,86,0.0,0.0,65,0.00,,,0.00,Wunderground v.1.15,2013-06-14 04:50:00,
2013-06-13 23:59:00,69.9,57.6,29.97,East,86,0.0,0.0,65,0.00,,,0.00,Wunderground v.1.15,2013-06-14 04:59:00,